Regional Weather Roundup
Issued by NWS

Home | Current Version | Previous Version | Graphics & Text | Print | Product List | Glossary On
Versions: 1 2 3 4 5 6 7 8 9 10 11 12 13 14 15 16 17 18 19 20 21 22 23 24 25 26 27 28 29 30 31 32 33 34 35 36 37 38 39 40 41 42 43 44 45 46 47 48 49 50
000
ASUS43 KFSD 300702
RWRSD

WEATHER ROUNDUP FOR SOUTH DAKOTA
NATIONAL WEATHER SERVICE SIOUX FALLS SD
200 AM CDT TUE JUN 30 2015

NOTE: "FAIR" INDICATES FEW OR NO CLOUDS BELOW 12,000 FEET WITH NO
SIGNIFICANT WEATHER AND/OR OBSTRUCTIONS TO VISIBILITY.


SDZ001>005-009-010-012>017-300800-
NORTHWEST AND NORTH CENTRAL SOUTH DAKOTA

CITY           SKY/WX    TMP DP  RH WIND       PRES   REMARKS
BUFFALO          N/A     70  58  65 NW6       29.92R
FAITH            N/A     67  61  81 N10       29.92F
MOBRIDGE       MOCLDY    71  62  73 SE10      29.90F
$$

SDZ012>016-024>037-041>051-057-063-072>074-300800-
SOUTHWEST AND SOUTH CENTRAL SOUTH DAKOTA

CITY           SKY/WX    TMP DP  RH WIND       PRES   REMARKS
RAPID CTY ARPT PTCLDY    68  57  68 W7        30.01F
PIERRE         PTCLDY    69  61  75 CALM      29.90F
CUSTER         MOCLDY    59  51  75 W5        30.20F
ELLSWORTH AFB  PTCLDY    70  58  67 SW8       30.00F
PHILIP         PTCLDY    69  64  84 NW5       29.92F
PINE RIDGE     CLEAR     62  57  83 CALM      30.04F
WINNER         FAIR      75  54  47 SW7       29.94F
$$

SDZ004>011-016>023-039-040-300800-
NORTHEAST SOUTH DAKOTA

CITY           SKY/WX    TMP DP  RH WIND       PRES   REMARKS
ABERDEEN       PTCLDY    67  61  81 CALM      29.94R
WATERTOWN      MOCLDY    63  59  87 NE7       29.93S
BROOKINGS      MOCLDY    63  57  82 NE5       29.94F
SISSETON         N/A     62  60  93 NW6       29.91S
$$

SDZ017-020-022-023-036>040-048>070-300800-
SOUTHEAST SOUTH DAKOTA

CITY           SKY/WX    TMP DP  RH WIND       PRES   REMARKS
SIOUX FALLS    MOCLDY    65  61  87 CALM      29.93R
HURON          PTCLDY    69  63  81 E5        29.91S
CHAMBERLAIN    PTCLDY    69  62  78 CALM      29.91F
MITCHELL       CLEAR     68  66  93 E6        29.91S FOG
YANKTON        PTCLDY    70  61  73 SW3       29.91S
$$

ABBREVIATIONS USED IN REMARKS
   TC - TEMPERATURE IN CELSIUS
  WCI - WIND CHILL INDEX
   HX - HEAT INDEX
  VSB - VISIBILITY




USA.gov is the U.S. government's official web portal to all federal, state and local government web resources and services.